Location: Newark
(44.9000°N, 9.6000°E)
Time: 11:11:41
(UTC+00:00)

ISS - Pass Details

Date: 25 January 2020
Orbit: 415 x 422 km, 51.6° (Epoch: 26 February)

Event Time Altitude Azimuth Distance (km) Brightness Sun altitude
Rises 18:08:29 0° 265° (W) 2,375 1.7 -19.3°
Reaches altitude 10° 18:10:42 10° 275° (W) 1,511 0.2 -19.7°
Maximum altitude 18:13:51 35° 343° (NNW) 703 -2.6 -20.2°
Enters shadow 18:14:05 35° 353° (N) 709 -2.7 -20.3°
